User: anonymous   Login
Location: Unspecified
(42.5928°N, 0.0000°E)
Time: 21:39:27
(UTC+00:00)
Language:

Cosmos 1544 Rocket - Orbit

View from above orbital plane
View from above orbital plane
View from above satellite
View from above satellite

Ground track
Ground track

The orbit is defined by the following mean orbital elements,

1 14820U          26088.08619522 +.00000000 +00000-0 +65231-4 0 00006
2 14820  82.5418 226.8195 0016475 269.1858  90.7471 14.85996662    04
Epoch (UTC): 29 March 2026 02:04:07
Eccentricity: 0.0016475
inclination: 82.5418°
perigee height: 599 km
apogee height: 622 km
right ascension of ascending node: 226.8195°
argument of perigee: 269.1858°
revolutions per day: 14.85996662
mean anomaly at epoch: 90.7471°

The dashed part of the orbit path shows where the satellite is in the earth's shadow,  

DLR